Radiation Dose at Monitoring Post of Fukushima Daini Nuclear Power Station
Date,Time,MP-1(microSv/h),MP-2(microSv/h),MP-3(microSv/h),MP-4(microSv/h),MP-5(microSv/h),MP-6(microSv/h),MP-7(microSv/h),Wind Direction,Wind Velocity(m/s),Rain
2014/03/25,00:00,0.7,0.5,0.8,0.7,0.7,0.3,0.3,southwest,8.6,No
2014/03/25,00:10,0.7,0.5,0.8,0.7,0.7,0.3,0.3,southwest,8.0,No
2014/03/25,00:20,0.7,0.5,0.8,0.7,0.7,0.3,0.3,southwest,5.3,No
2014/03/25,00:30,0.7,0.5,0.8,0.7,0.7,0.3,0.3,south-southwest,5.0,No
2014/03/25,00:40,0.7,0.5,0.8,0.7,0.7,0.3,0.3,south-southwest,5.1,No
2014/03/25,00:50,0.7,0.5,0.8,0.7,0.7,0.3,0.3,south-southwest,4.8,No
2014/03/25,01:00,0.7,0.5,0.8,0.7,0.7,0.3,0.3,south-southwest,5.0,No
2014/03/25,01:10,0.7,0.5,0.8,0.7,0.7,0.3,0.3,southwest,6.6,No
2014/03/25,01:20,0.7,0.5,0.8,0.7,0.7,0.3,0.3,southwest,6.7,No
2014/03/25,01:30,0.7,0.5,0.8,0.7,0.7,0.3,0.3,south-southwest,6.0,No
2014/03/25,01:40,0.7,0.5,0.8,0.7,0.7,0.3,0.3,southwest,6.7,No
2014/03/25,01:50,0.7,0.5,0.8,0.7,0.7,0.3,0.3,southwest,6.8,No
2014/03/25,02:00,0.8,0.5,0.8,0.7,0.7,0.3,0.3,southwest,7.0,No
2014/03/25,02:10,0.8,0.5,0.8,0.7,0.7,0.3,0.3,southwest,5.9,No
2014/03/25,02:20,0.7,0.5,0.8,0.7,0.7,0.3,0.3,southwest,6.4,No
2014/03/25,02:30,0.7,0.5,0.8,0.7,0.7,0.3,0.3,southwest,6.5,No
2014/03/25,02:40,0.7,0.5,0.8,0.7,0.7,0.3,0.3,south-southwest,5.0,No
2014/03/25,02:50,0.7,0.5,0.8,0.7,0.7,0.3,0.3,south-southwest,2.9,No
2014/03/25,03:00,0.7,0.5,0.8,0.7,0.7,0.3,0.3,south,2.2,No
2014/03/25,03:10,0.7,0.5,0.8,0.7,0.7,0.3,0.3,south-southwest,3.3,No
2014/03/25,03:20,0.8,0.5,0.8,0.7,0.7,0.3,0.3,south,3.9,No
2014/03/25,03:30,0.7,0.5,0.8,0.7,0.7,0.3,0.3,south-southwest,5.6,No
2014/03/25,03:40,0.7,0.5,0.8,0.7,0.7,0.3,0.3,south-southwest,6.1,No
2014/03/25,03:50,0.8,0.5,0.8,0.7,0.7,0.3,0.3,south-southwest,6.3,No
2014/03/25,04:00,0.7,0.5,0.8,0.7,0.7,0.3,0.3,south-southwest,6.0,No
2014/03/25,04:10,0.7,0.5,0.8,0.7,0.7,0.3,0.3,southwest,3.9,No
2014/03/25,04:20,0.7,0.5,0.8,0.7,0.7,0.3,0.3,southwest,3.6,No
2014/03/25,04:30,0.7,0.5,0.8,0.7,0.7,0.3,0.3,south-southwest,2.4,No
2014/03/25,04:40,0.7,0.5,0.8,0.7,0.7,0.3,0.3,southwest,1.9,No
2014/03/25,04:50,0.7,0.5,0.8,0.7,0.7,0.3,0.3,west-southwest,2.8,No
2014/03/25,05:00,0.7,0.5,0.8,0.7,0.7,0.3,0.3,southwest,2.5,No
2014/03/25,05:10,0.7,0.5,0.8,0.7,0.7,0.3,0.3,southwest,2.6,No
2014/03/25,05:20,0.7,0.5,0.8,0.7,0.7,0.3,0.3,southwest,1.9,No
2014/03/25,05:30,0.8,0.5,0.8,0.7,0.7,0.3,0.3,west-southwest,1.9,No
2014/03/25,05:40,0.7,0.5,0.8,0.7,0.7,0.3,0.3,west-southwest,1.8,No
2014/03/25,05:50,0.7,0.5,0.8,0.7,0.7,0.3,0.3,west-southwest,1.8,No
2014/03/25,06:00,0.7,0.5,0.8,0.7,0.7,0.3,0.3,southwest,1.7,No
2014/03/25,06:10,0.7,0.5,0.8,0.7,0.7,0.3,0.3,southwest,3.5,No
2014/03/25,06:20,0.7,0.5,0.8,0.7,0.7,0.3,0.3,southwest,5.9,No
2014/03/25,06:30,0.7,0.5,0.8,0.7,0.7,0.3,0.3,south-southwest,5.1,No
2014/03/25,06:40,0.7,0.5,0.8,0.7,0.7,0.3,0.3,south-southwest,4.5,No
2014/03/25,06:50,0.7,0.5,0.8,0.7,0.7,0.3,0.3,south-southwest,4.6,No
2014/03/25,07:00,0.7,0.5,0.8,0.7,0.7,0.3,0.3,south-southwest,4.5,No
2014/03/25,07:10,0.7,0.5,0.8,0.7,0.7,0.3,0.3,south-southwest,4.7,No
2014/03/25,07:20,0.7,0.5,0.8,0.7,0.7,0.3,0.3,southwest,4.2,No
2014/03/25,07:30,0.8,0.5,0.8,0.7,0.7,0.3,0.3,southwest,3.9,No
2014/03/25,07:40,0.8,0.5,0.8,0.7,0.7,0.3,0.3,southwest,3.3,No
2014/03/25,07:50,0.7,0.5,0.8,0.7,0.7,0.3,0.3,southwest,3.9,No
2014/03/25,08:00,0.7,0.5,0.8,0.7,0.7,0.3,0.3,southwest,3.6,No
2014/03/25,08:10,0.7,0.5,0.8,0.7,0.7,0.3,0.3,west-southwest,6.2,No
2014/03/25,08:20,0.8,0.5,0.8,0.7,0.7,0.3,0.3,west-southwest,5.0,No
2014/03/25,08:30,0.7,0.5,0.8,0.7,0.7,0.3,0.3,southwest,4.8,No
2014/03/25,08:40,0.8,0.5,0.8,0.7,0.7,0.3,0.3,southwest,4.9,No
2014/03/25,08:50,0.7,0.5,0.8,0.7,0.7,0.3,0.3,south-southwest,5.3,No
2014/03/25,09:00,0.7,0.5,0.8,0.7,0.7,0.3,0.3,southwest,5.3,No
2014/03/25,09:10,0.8,0.5,0.8,0.7,0.7,0.3,0.3,southwest,6.0,No
2014/03/25,09:20,0.7,0.5,0.8,0.7,0.7,0.3,0.3,southwest,5.9,No
2014/03/25,09:30,0.7,0.5,0.8,0.7,0.7,0.3,0.3,southwest,5.9,No
2014/03/25,09:40,0.8,0.5,0.8,0.7,0.7,0.3,0.3,southwest,4.5,No
2014/03/25,09:50,0.7,0.5,0.8,0.7,0.7,0.3,0.3,southwest,5.3,No
2014/03/25,10:00,0.8,0.5,0.8,0.7,0.7,0.3,0.3,southwest,3.4,No
2014/03/25,10:10,0.8,0.5,0.8,0.7,0.7,0.3,0.3,south-southwest,4.5,No
2014/03/25,10:20,0.7,0.5,0.8,0.7,0.7,0.3,0.3,west-southwest,1.9,No
2014/03/25,10:30,0.8,0.5,0.8,0.7,0.7,0.3,0.3,south-southwest,3.9,No
2014/03/25,10:40,0.8,0.5,0.8,0.7,0.7,0.3,0.3,south-southwest,5.4,No
2014/03/25,10:50,0.8,0.5,0.8,0.7,0.7,0.3,0.3,west-northwest,2.9,No
2014/03/25,11:00,0.8,0.5,0.8,0.7,0.7,0.3,0.3,west-southwest,5.1,No
2014/03/25,11:10,0.8,0.5,0.8,0.7,0.7,0.3,0.3,south-southwest,6.1,No
2014/03/25,11:20,0.8,0.5,0.8,0.7,0.7,0.3,0.3,southwest,6.1,No
2014/03/25,11:30,0.8,0.5,0.8,0.7,0.7,0.3,0.3,southwest,4.1,No
2014/03/25,11:40,0.8,0.5,0.8,0.7,0.7,0.3,0.3,south-southwest,4.3,No
2014/03/25,11:50,0.8,0.5,0.8,0.7,0.7,0.3,0.3,south-southwest,6.1,No
2014/03/25,12:00,0.8,0.5,0.8,0.7,0.7,0.3,0.3,south-southwest,6.7,No
2014/03/25,12:10,0.8,0.5,0.8,0.7,0.7,0.3,0.3,south-southwest,5.7,No
2014/03/25,12:20,0.8,0.5,0.8,0.7,0.7,0.3,0.3,south-southwest,3.9,No
2014/03/25,12:30,0.8,0.5,0.8,0.7,0.7,0.3,0.3,south-southwest,5.7,No
2014/03/25,12:40,0.8,0.5,0.8,0.7,0.7,0.3,0.3,south-southwest,5.0,No
2014/03/25,12:50,0.8,0.5,0.8,0.7,0.7,0.3,0.3,west-southwest,2.5,No
2014/03/25,13:00,0.8,0.5,0.8,0.7,0.7,0.3,0.3,west-southwest,6.3,No
2014/03/25,13:10,0.8,0.5,0.8,0.7,0.7,0.3,0.3,west,7.6,No
2014/03/25,13:20,0.8,0.5,0.8,0.7,0.7,0.3,0.3,west-southwest,3.7,No
2014/03/25,13:30,0.8,0.5,0.8,0.7,0.7,0.3,0.3,west-southwest,5.2,No
2014/03/25,13:40,0.8,0.5,0.8,0.7,0.7,0.3,0.3,west,4.7,No
2014/03/25,13:50,0.8,0.5,0.8,0.7,0.7,0.3,0.3,west-northwest,6.2,No
2014/03/25,14:00,0.8,0.5,0.8,0.7,0.7,0.3,0.3,west-northwest,8.1,No
2014/03/25,14:10,0.8,0.5,0.8,0.7,0.7,0.3,0.3,west-northwest,7.4,No
2014/03/25,14:20,0.8,0.5,0.8,0.7,0.7,0.3,0.3,west,6.1,No
2014/03/25,14:30,0.8,0.5,0.8,0.7,0.7,0.3,0.3,west-northwest,5.8,No
2014/03/25,14:40,0.8,0.5,0.8,0.7,0.7,0.3,0.3,west,4.6,No
2014/03/25,14:50,0.8,0.5,0.8,0.7,0.7,0.3,0.3,west-northwest,5.9,No
2014/03/25,15:00,0.8,0.5,0.8,0.7,0.7,0.3,0.3,northwest,5.7,No
2014/03/25,15:10,0.8,0.5,0.8,0.7,0.7,0.3,0.3,west-northwest,3.7,No
2014/03/25,15:20,0.8,0.5,0.8,0.7,0.7,0.3,0.3,west,4.2,No
2014/03/25,15:30,0.8,0.5,0.8,0.7,0.7,0.3,0.3,northwest,5.7,No
2014/03/25,15:40,0.8,0.5,0.8,0.7,0.7,0.3,0.3,west-northwest,5.9,No
2014/03/25,15:50,0.8,0.5,0.8,0.7,0.7,0.3,0.3,west-northwest,5.9,No
2014/03/25,16:00,0.8,0.5,0.8,0.7,0.7,0.3,0.3,northwest,5.7,No
2014/03/25,16:10,0.8,0.5,0.8,0.7,0.7,0.3,0.3,west-northwest,4.4,No
2014/03/25,16:20,0.8,0.5,0.8,0.7,0.7,0.3,0.3,northwest,4.8,No
2014/03/25,16:30,0.8,0.5,0.8,0.7,0.7,0.3,0.3,northwest,4.3,No
2014/03/25,16:40,0.8,0.5,0.8,0.7,0.7,0.3,0.3,northwest,7.5,No
2014/03/25,16:50,0.8,0.5,0.8,0.7,0.7,0.3,0.3,northwest,6.8,No
2014/03/25,17:00,0.8,0.5,0.8,0.7,0.7,0.3,0.3,northwest,5.0,No
2014/03/25,17:10,0.8,0.5,0.8,0.7,0.7,0.3,0.3,northwest,6.2,No
2014/03/25,17:20,0.8,0.5,0.8,0.7,0.7,0.3,0.3,west-northwest,9.3,No
2014/03/25,17:30,0.8,0.5,0.8,0.7,0.7,0.3,0.3,west,7.5,No
2014/03/25,17:40,0.8,0.5,0.8,0.7,0.7,0.3,0.3,west,10.1,No
2014/03/25,17:50,0.8,0.5,0.8,0.7,0.7,0.3,0.3,west,9.9,No
2014/03/25,18:00,0.8,0.5,0.8,0.7,0.7,0.3,0.3,west,12.6,No
2014/03/25,18:10,0.8,0.5,0.8,0.7,0.7,0.3,0.3,west,9.7,No
2014/03/25,18:20,0.8,0.5,0.8,0.7,0.7,0.3,0.3,west,12.1,No
2014/03/25,18:30,0.7,0.5,0.8,0.7,0.7,0.3,0.3,west,10.5,No
2014/03/25,18:40,0.7,0.5,0.8,0.7,0.7,0.3,0.3,west,11.1,No
2014/03/25,18:50,0.8,0.5,0.8,0.7,0.7,0.3,0.3,west,9.3,No
2014/03/25,19:00,0.7,0.5,0.8,0.7,0.7,0.3,0.3,west,4.4,No
2014/03/25,19:10,0.7,0.5,0.8,0.7,0.7,0.3,0.3,west-southwest,2.8,No
2014/03/25,19:20,0.7,0.5,0.8,0.7,0.7,0.3,0.3,west,2.5,No
2014/03/25,19:30,0.7,0.5,0.8,0.7,0.7,0.3,0.3,west,1.4,No
2014/03/25,19:40,0.8,0.5,0.8,0.7,0.7,0.3,0.3,west-northwest,1.8,No
2014/03/25,19:50,0.8,0.5,0.8,0.7,0.7,0.3,0.3,north,2.2,No
2014/03/25,20:00,0.8,0.5,0.8,0.7,0.7,0.3,0.3,west-northwest,3.6,No
2014/03/25,20:10,0.8,0.5,0.8,0.7,0.7,0.3,0.3,northwest,5.9,No
2014/03/25,20:20,0.8,0.5,0.8,0.7,0.7,0.3,0.3,west-northwest,5.3,No
2014/03/25,20:30,0.8,0.5,0.8,0.7,0.7,0.3,0.3,west-northwest,7.1,No
2014/03/25,20:40,0.8,0.5,0.8,0.7,0.7,0.3,0.3,west,6.9,No
2014/03/25,20:50,0.8,0.5,0.8,0.7,0.7,0.3,0.3,west,8.4,No
2014/03/25,21:00,0.8,0.5,0.8,0.7,0.7,0.3,0.3,west,10.7,No
2014/03/25,21:10,0.8,0.5,0.8,0.7,0.7,0.3,0.3,west,12.9,No
2014/03/25,21:20,0.8,0.5,0.8,0.7,0.7,0.3,0.3,west,14.6,No
2014/03/25,21:30,0.8,0.5,0.8,0.7,0.7,0.3,0.3,west,14.9,No
2014/03/25,21:40,0.8,0.5,0.8,0.7,0.7,0.3,0.3,west,17.3,No
2014/03/25,21:50,0.8,0.5,0.8,0.7,0.7,0.3,0.3,west,14.6,No
2014/03/25,22:00,0.8,0.5,0.8,0.7,0.7,0.3,0.3,west,15.0,No
2014/03/25,22:10,0.8,0.5,0.8,0.7,0.7,0.3,0.3,west,15.0,No
2014/03/25,22:20,0.8,0.5,0.8,0.7,0.7,0.3,0.3,west,15.7,No
2014/03/25,22:30,0.8,0.5,0.8,0.7,0.7,0.3,0.3,west,12.9,No
2014/03/25,22:40,0.8,0.5,0.8,0.7,0.7,0.3,0.3,west,14.2,No
2014/03/25,22:50,0.8,0.5,0.8,0.7,0.7,0.3,0.3,west,13.8,No
2014/03/25,23:00,0.8,0.5,0.8,0.7,0.7,0.3,0.3,west,13.9,No
2014/03/25,23:10,0.8,0.5,0.8,0.7,0.7,0.3,0.3,west,15.6,No
2014/03/25,23:20,0.8,0.5,0.8,0.7,0.7,0.3,0.3,west,15.4,No
2014/03/25,23:30,0.8,0.5,0.8,0.7,0.7,0.3,0.3,west,14.4,No
2014/03/25,23:40,0.8,0.5,0.8,0.7,0.7,0.3,0.3,west,13.7,No
2014/03/25,23:50,0.8,0.5,0.8,0.7,0.7,0.3,0.3,west,17.1,No
